Regional Weather Roundup
Issued by NWS

Home | Current Version | Previous Version | Graphics & Text | Print | Product List | Glossary On
Versions: 1 2 3 4 5 6 7 8 9 10 11 12 13 14 15 16 17 18 19 20 21 22 23 24 25 26 27 28 29 30 31 32 33 34 35 36 37 38 39 40 41 42 43 44 45 46 47 48 49 50
000
ASUS43 KLOT 231409
RWRIL

ILLINOIS REGIONAL WEATHER ROUNDUP
NATIONAL WEATHER SERVICE CHICAGO/ROMEOVILLE IL
900 AM CDT TUE MAY 23 2017

NOTE: "FAIR" INDICATES FEW OR NO CLOUDS BELOW 12,000 FEET WITH NO
SIGNIFICANT WEATHER AND/OR OBSTRUCTIONS TO VISIBILITY.

* THESE STATIONS ARE NOT UNDER NWS QUALITY CONTROL. THEY ALSO MAY NOT
  REPORT WEATHER SUCH AS PRECIPITATION OR FOG.

ILZ001-002-007-009-015-016-024-231500-
NORTHWEST ILLINOIS

CITY           SKY/WX    TMP DP  RH WIND       PRES   REMARKS
MOLINE         CLOUDY    60  54  80 SW6       29.79S
STERLING*      CLOUDY    59  55  87 VRB5      29.79F
SAVANNA*       CLOUDY    57  53  85 W5        29.79S
$$

ILZ003-004-008-010-011-017-018-231500-
NORTH CENTRAL ILLINOIS

CITY           SKY/WX    TMP DP  RH WIND       PRES   REMARKS
ROCKFORD       CLOUDY    59  53  80 SW10      29.81S
FREEPORT*      PTSUNNY   58  54  85 SW10      29.81R
ROCHELLE*      CLOUDY    57  55  91 SW9       29.81F
DE KALB*       LGT RAIN  56  55  94 S10       29.82S
PERU*          LGT RAIN  56  54  93 S8        29.82S
$$

ILZ005-006-012>014-019>023-231500-
NORTHEAST ILLINOIS

CITY           SKY/WX    TMP DP  RH WIND       PRES   REMARKS
CHICAGO-OHARE  LGT RAIN  60  54  80 SW13G22   29.82R
CHICAGO-MIDWAY LGT RAIN  59  56  89 SW13G23   29.83R
AURORA         LGT RAIN  58  56  93 SW6       29.82F
LANSING*       DRIZZLE   59  56  89 W10       29.84S
WAUKEGAN       CLOUDY    61  54  77 SW10G17   29.79S
DUPAGE AIRPORT LGT RAIN  57  57 100 SW13      29.82R FOG
KANKAKEE*      CLOUDY    60  55  82 CALM      29.84F
WHEELING       CLOUDY    60  54  80 SW15      29.82R
MORRIS*        LGT RAIN  57  55  93 CALM      29.82F
ROMEOVILLE*    LGT RAIN  57  57 100 SW8       29.84S
NORTHERLY ISL    N/A     60  52  74 SW12        N/A
$$

LMZ740>746-231500-
SOUTHERN LAKE MICHIGAN

STATION/POSITION SKY/WX   TEMP    WIND        PRES    VSBY  WAVE
                          AIR SEA DIR/SP/G                  HT/PER
                          (F)     (DEG/KT/KT) (MB)    (MI)  (FT/S)
SOUTHERN BUOY              48 45  170/  6/  8 1009.8          1
WILMETTE HARBOR            58 54                N/A           1/ 2
HARRISON CRIB              61     210/ 16/ 18   N/A
BURNHAM HARBOR             60     230/  7/ 12   N/A
CALUMET HARBOR             60     220/  6/ 12 1009.7R
BURNS HARBOR               61     210/  8/ 11 1010.5S
MICHIGAN CITY              61     160/  4/  5   N/A
MICHIGAN CITY 6N           56 53  230/  6/  6   N/A           1
ST. JOSEPH                 59 55  210/  8/ 10 1010.4          1/ 3
$$

ILZ025>027-034>036-040-047-049-050-058-095>099-231500-
WEST-CENTRAL ILLINOIS

CITY           SKY/WX    TMP DP  RH WIND       PRES   REMARKS
QUINCY         LGT RAIN  57  56  96 SW6       29.81F
GALESBURG*     RAIN      56  55  99 S7        29.80S
MACOMB*        LGT RAIN  56  55  98 S5        29.83F
JACKSONVILLE*  CLOUDY    57  55  91 CALM      29.83S
PITTSFIELD*    RAIN      57  56  96 CALM      29.83F
$$

ILZ028>032-037-038-041>044-048-051>054-059>061-231500-
CENTRAL ILLINOIS

CITY           SKY/WX    TMP DP  RH WIND       PRES   REMARKS
PONTIAC        LGT RAIN  58  57  97 W3        29.84F
DECATUR        CLOUDY    62  56  80 NE6       29.83S
PEORIA         LGT RAIN  57  55  93 CALM      29.82S
LACON*         LGT RAIN  56  56  99 CALM      29.81F
LINCOLN*       CLOUDY    59  56  91 CALM      29.83S
SPRINGFIELD    CLOUDY    60  56  86 N5        29.83F
TAYLORVILLE    CLOUDY    62  54  76 NE5       29.82F
$$

ILZ033-039-045-046-055>057-062-063-231500-
EAST-CENTRAL ILLINOIS

CITY           SKY/WX    TMP DP  RH WIND       PRES   REMARKS
CHAMPAIGN      CLOUDY    63  54  72 E7        29.83S
RANTOUL*       CLOUDY    64  56  75 NW7       29.84S
MATTOON        MOSUNNY   63  55  75 S5        29.82F
PARIS*         PTSUNNY   63  53  71 SE3       29.84S
$$

ILZ079-100>102-231500-
SOUTHWEST ILLINOIS

CITY           SKY/WX    TMP DP  RH WIND       PRES   REMARKS
ALTON          CLOUDY    63  55  77 CALM      29.81F
BELLEVILLE     CLOUDY    63  57  81 CALM      29.81F
CAHOKIA*       MOSUNNY   67  55  65 VRB5      29.80F
SPARTA*        PTSUNNY   65  56  70 SE6       29.81F
$$

ILZ064>066-069>071-074>076-080>082-084>086-088>090-092>094-231500-
SOUTH-CENTRAL ILLINOIS

CITY           SKY/WX    TMP DP  RH WIND       PRES   REMARKS
CARBONDALE     CLOUDY    64  58  80 S3        29.81F
CAIRO*         CLOUDY    66  57  72 CALM      29.80F
EFFINGHAM*     CLOUDY    65  57  76 SE3       29.84S
MARION         PTSUNNY   66  57  72 S6        29.82F
MT. VERNON       N/A     65  56  72 S3        29.82F
CENTRALIA*     CLOUDY    66  56  71 S3        29.80F
SALEM*         CLOUDY    65  55  68 CALM      29.82F
METROPOLIS*    CLOUDY    65  57  76 CALM      29.81F
$$

ILZ067-068-072-073-078-083-087-091-231500-
SOUTHEAST ILLINOIS

CITY           SKY/WX    TMP DP  RH WIND       PRES   REMARKS
LAWRENCEVILLE  MOSUNNY   66  52  60 SE8       29.83F
FLORA*         CLOUDY    66  56  68 S5        29.82F
FAIRFIELD*     CLOUDY    64  55  73 SE3       29.81F
HARRISBURG*    CLOUDY    65  56  73 CALM      29.82F
ROBINSON*      MOSUNNY   64  53  68 SE5       29.84S
CARMI*         CLOUDY    66  54  64 SE5       29.82S
$$

ABBREVIATIONS USED IN REMARKS
   TC - TEMPERATURE IN CELSIUS
  WCI - WIND CHILL INDEX
   HX - HEAT INDEX
  VSB - VISIBILITY
$$





USA.gov is the U.S. government's official web portal to all federal, state and local government web resources and services.